パンスターズ彗星

358P/PanSTARRS (2018)

English version
Home page
Updated on April 23, 2020

---------------------------------------------------------------------

・ プロフィール

符号 358P/2017 O3
検出日 2017年7月28日、7月1日
検出光度 24.4等、23.9等
検出者 M. Mommert and J. Agarwal (Southern Astrophysical Research (SOAR) Cassegrain telescope at Cerro Pachon, Chile), H. H. Hsieh, J. Chavez, L. Magill, and K. Silva ("Gemini South" telescope at Cerro Pachon)

・ 軌道要素

Epoch 2018 Mar. 23.0 TT = JDT 2458200.5                                         
T 2018 Apr. 11.62422 TT                                 Rudenko                 
q   2.4019772            (2000.0)            P               Q                  
n   0.17625636     Peri.  299.89671     +0.88564706     -0.42315001             
a   3.1504519      Node    85.72172     +0.46393110     +0.78863146             
e   0.2375769      Incl.   11.05645     +0.01993034     +0.44609919             
P   5.59                                                                        
From 182 observations 2001 Dec. 9-2017 Aug. 17, mean residual 0".4.             

・ 光度変化

        m1 = 17.5 + 5 logΔ + 10.0 log r

        ※ 灰色の曲線は、m1 = 15.0 + 5 logΔ + 10.0 log r の光度曲線です。

---------------------------------------------------------------------

軌道要素はM.P.E.C. 2020-H67に掲載されたものです。
光度グラフはComet for Windowsで作成したものです。

---------------------------------------------------------------------

Copyright(C) Seiichi Yoshida (comet@aerith.net). All rights reserved.